カタログに戻る

CZ-6A DEB

運用中PO
NORAD 60694·DEBRIS·🇨🇳 China

打ち上げ Aug 6, 2024 から Taiyuan Satellite Launch Center

Loading…

次のパス (今後24時間)

TLE

最新Source: Space-Track

元期: Sep 14, 2026, 11:10 UTC

1 60694U 24140CX  26257.46536119  .00000778  00000-0  37022-3 0  9992
2 60694  89.0053 265.9155 0057129 277.6302  81.8401 14.17648294108553

AllMySatでCZ-6A DEBをリアルタイム追跡

Download on the App Store